K5RG-3 Weather Reports


time (UTC)temp
C
wind
direction
speed
KPH
gust
KPH
rain 1hr
cm
rain 24hr
cm
rain mn
cm
humidity
%
barometer
mb
20260503174508 24 79 12.9 22.5 0.00 0.00 0.00 39 1020.8
20260503173028 24 115 0.0 14.5 0.00 0.00 0.00 38 1021.1
20260503171509 24 85 0.0 20.9 0.00 0.00 0.00 39 1021.1
20260503100118 13 59 0.0 0.0 0.00 0.00 0.00 89 1019.2
20260503081550 15 59 0.0 0.0 0.00 0.00 0.00 82 1019.2
20260503071539 16 59 0.0 3.2 0.00 0.00 0.00 79 1019.0
20260503054532 16 46 0.0 3.2 0.00 0.00 0.00 77 1019.0
20260503053038 16 46 1.6 3.2 0.00 0.00 0.00 75 1018.9
20260503051527 17 46 0.0 4.8 0.00 0.00 0.00 75 1018.7
20260503050025 17 65 0.0 3.2 0.00 0.00 0.00 74 1018.7
20260503044559 17 65 1.6 4.8 0.00 0.00 0.00 74 1018.6
20260503043026 17 60 0.0 6.4 0.00 0.00 0.00 73 1018.6
20260503041523 17 65 0.0 6.4 0.00 0.00 0.00 72 1018.7
20260503040022 17 55 1.6 6.4 0.00 0.00 0.00 70 1018.5
20260503034523 18 61 1.6 4.8 0.00 0.05 0.00 70 1018.3
20260503033022 18 64 1.6 6.4 0.00 0.05 0.00 68 1018.2
20260503031521 18 40 0.0 4.8 0.00 0.05 0.00 68 1018.0
20260503030021 18 61 0.0 0.0 0.00 0.05 0.00 67 1018.1
20260503024521 19 29 0.0 1.6 0.00 0.18 0.00 63 1018.1
20260503023019 20 29 0.0 6.4 0.00 0.18 0.00 61 1017.8
20260503021523 20 21 3.2 6.4 0.00 0.18 0.00 59 1017.7
20260503020031 20 27 1.6 6.4 0.00 0.18 0.00 58 1017.7
20260503014519 21 15 1.6 6.4 0.00 0.33 0.00 57 1017.4
20260503013018 21 13 3.2 6.4 0.00 0.33 0.00 56 1017.2
20260503011519 21 21 3.2 8.0 0.00 0.33 0.00 55 1017.2
20260503010017 22 23 3.2 11.3 0.00 0.33 0.00 53 1016.9
20260503004516 22 355 3.2 9.7 0.00 1.02 0.00 52 1016.7
20260503003027 22 9 3.2 11.3 0.00 1.02 0.00 52 1016.5
20260503001515 23 25 4.8 14.5 0.00 1.02 0.00 49 1016.5
20260503000026 23 1 6.4 19.3 0.00 1.02 0.00 48 1016.4
20260502234521 23 354 1.6 16.1 0.00 1.12 0.00 49 1016.3
20260502233013 23 36 4.8 17.7 0.00 1.12 0.00 48 1016.2
20260502231513 23 40 8.0 24.1 0.00 1.12 0.00 47 1016.2
20260502230013 23 72 6.4 24.1 0.00 1.12 0.00 47 1016.1
20260502224513 23 23 4.8 19.3 0.00 1.14 0.00 46 1015.8
20260502223031 23 51 4.8 25.7 0.00 1.14 0.00 47 1016.1
20260502221511 23 22 11.3 25.7 0.00 1.14 0.00 45 1016.2
20260502220012 23 358 8.0 19.3 0.00 1.14 0.00 45 1016.1
20260502214510 23 29 9.7 25.7 0.00 1.55 0.00 47 1016.2
20260502213008 23 19 8.0 20.9 0.00 1.55 0.00 46 1016.2
20260502211508 23 327 9.7 25.7 0.00 1.55 0.00 45 1016.2
20260502210008 23 76 4.8 25.7 0.00 1.55 0.00 48 1016.3
20260502204508 23 9 11.3 20.9 0.00 2.79 0.00 46 1016.4
20260502203006 23 21 6.4 25.7 0.00 2.79 0.00 48 1016.7
20260502201505 23 69 9.7 25.7 0.00 2.79 0.00 48 1016.7
20260502200004 23 10 4.8 25.7 0.00 2.79 0.00 50 1016.8
20260502194509 23 20 11.3 29.0 0.00 4.32 0.00 47 1017.1
20260502193002 23 36 9.7 22.5 0.00 4.32 0.00 49 1017.3
20260502191501 23 347 9.7 22.5 0.00 4.32 0.00 54 1017.5
20260502190059 22 70 9.7 22.5 0.00 4.32 0.00 49 1017.6
20260502184557 22 7 12.9 25.7 0.00 4.32 0.00 51 1017.7
20260502183104 22 107 8.0 29.0 0.00 4.32 0.00 55 1017.8
20260502181554 22 22 6.4 29.0 0.00 4.32 0.00 54 1018.1